This is the latest recevied weather packets stored in our database for station/object K5NCO. If no packets are shown the sender has not sent any weather packets the latest 10 day(s).
| Time | Temp. | Humidity | Pressure | Rain* | Wind** | Luminosity | Snow |
|---|---|---|---|---|---|---|---|
| 1777948024 | 23.89° C | 77% | 1010.5 hPa | 0 mm | - | 0 W/m² | - |
| 1777947720 | 24.44° C | 76% | 1010.5 hPa | 0 mm | - | 0 W/m² | - |
| 1777947417 | 24.44° C | 76% | 1010.5 hPa | 0 mm | - | 0 W/m² | - |
| 1777947114 | 24.44° C | 75% | 1010.5 hPa | 0 mm | - | 0 W/m² | - |
| 1777946810 | 24.44° C | 75% | 1010.5 hPa | 0 mm | - | 0 W/m² | - |
| 1777946505 | 24.44° C | 74% | 1010.5 hPa | 0 mm | - | 0 W/m² | - |
| 1777946203 | 24.44° C | 73% | 1010.4 hPa | 0 mm | - | 0 W/m² | - |
| 1777945899 | 24.44° C | 73% | 1010.4 hPa | 0 mm | - | 0 W/m² | - |
| 1777945596 | 24.44° C | 72% | 1010.5 hPa | 0 mm | - | 0 W/m² | - |
| 1777945293 | 25° C | 72% | 1010.4 hPa | 0 mm | - | 0 W/m² | - |
| 1777944991 | 25° C | 71% | 1010.5 hPa | 0 mm | - | 0 W/m² | - |
| 1777944688 | 25° C | 70% | 1010.4 hPa | 0 mm | - | 0 W/m² | - |
| 1777944386 | 25° C | 70% | 1010.4 hPa | 0 mm | - | 0 W/m² | - |
| 1777944083 | 25.56° C | 69% | 1010.3 hPa | 0 mm | - | 0 W/m² | - |
| 1777943778 | 25.56° C | 68% | 1010.3 hPa | 0 mm | - | 1 W/m² | - |
| 1777943476 | 25.56° C | 68% | 1010.2 hPa | 0 mm | - | 2 W/m² | - |
| 1777943171 | 25.56° C | 67% | 1010.1 hPa | 0 mm | - | 3 W/m² | - |
| 1777942868 | 25.56° C | 67% | 1010.3 hPa | 0 mm | - | 6 W/m² | - |
| 1777942564 | 25.56° C | 67% | 1010.3 hPa | 0 mm | - | 9 W/m² | - |
| 1777942261 | 25.56° C | 67% | 1010.2 hPa | 0 mm | - | 12 W/m² | - |
| 1777941958 | 25.56° C | 66% | 1010.1 hPa | 0 mm | - | 15 W/m² | - |
| 1777941655 | 26.11° C | 65% | 1010 hPa | 0 mm | - | 19 W/m² | - |
| 1777941352 | 26.11° C | 64% | 1010.1 hPa | 0 mm | - | 30 W/m² | - |
| 1777941050 | 26.11° C | 64% | 1010.2 hPa | 0 mm | - | 37 W/m² | - |
| 1777940749 | 26.11° C | 64% | 1010 hPa | 0 mm | - | 42 W/m² | - |
* Rain latest hour (hover to see other rain measurements)
** Current wind speed in m/s (hover to see current wind gust speed)